Home   Weather   St Davids   Past weeks
Flag for United Kingdom

Past Weather in St Davids, Wales, United Kingdom — Yesterday and Last 2 Weeks

Now
36 °F

Chilly.


Feels Like: 33 °F
Forecast: 45 / 40 °F
Wind: 3 mph from East

Location: Milford Haven

Current Time: Jan 21, 2020 at 12:38:05 am

Latest Report: Jan 20, 2020 at 11:00 pm


Visibility: 6 mi

Pressure: 30.88 "Hg

Humidity: 98%

Dew Point: 35 °F

Location of St DavidsLocation

Past Weather in St Davids — Graph

°F

St Davids Temperature Yesterday

Maximum temperature yesterday: 43 °F (at 3:00 pm)
Minimum temperature yesterday: 31 °F (at 6:50 am)
Average temperature yesterday: 36 °F

High & Low Weather Summary for the Past Weeks

 TemperatureHumidityPressure
High53 °F (Jan 14, 1:00 pm)100% (Jan 7, 8:00 pm)31.00 "Hg (Jan 7, 8:00 pm)
Low31 °F (Jan 20, 6:50 am)62% (Jan 10, 12:00 pm)29.00 "Hg (Jan 14, 12:00 pm)
Average46 °F87%30.02 "Hg
* Reported Jan 5 11:00 pm — Jan 20 11:00 pm, St Davids. Weather by CustomWeather, © 2020

Note: Actual official high and low records may vary slightly from our data, if they occured in-between our weather recording intervals... More about our weather records

St Davids Weather History for the Previous 24 Hours

Scroll right to see more
 ConditionsComfort  
Time TempWeatherWind HumidityBarometerVisibility
11:00 pm
Mon, Jan 20
36 °FChilly.3 mph98%30.88 "Hg6 mi
10:00 pm35 °FChilly.3 mph98%30.90 "Hg4 mi
9:00 pm35 °FChilly.1 mph97%30.91 "Hg7 mi
8:00 pm36 °FChilly.3 mph97%30.92 "Hg0 mi
7:00 pm39 °FChilly.2 mph97%30.92 "Hg4 mi
6:00 pm40 °FQuite cool.3 mph97%30.92 "Hg6 mi
5:00 pm42 °FQuite cool.2 mph96%30.92 "Hg10 mi
4:00 pm42 °FQuite cool.2 mph96%30.92 "Hg7 mi
3:00 pm43 °FQuite cool.2 mph97%30.93 "Hg9 mi
2:00 pm40 °FChilly.2 mph100%30.94 "Hg7 mi
1:00 pm36 °FChilly.3 mph100%30.96 "Hg0 mi
12:00 pm35 °FChilly.3 mph99%30.98 "Hg0 mi
10:50 am33 °FChilly.3 mph100%31.00 "Hg2 mi
9:50 am32 °FChilly.5 mph99%31.00 "Hg0 mi
9:00 am33 °FChilly.6 mph99%30.99 "Hg0 mi
7:50 am31 °FChilly.6 mph98%30.98 "Hg0 mi
6:50 am31 °FChilly.5 mph99%30.96 "Hg1 mi
6:00 am32 °FChilly.6 mph98%30.97 "Hg0 mi
5:00 am32 °FChilly.6 mph98%30.98 "Hg1 mi
4:00 am33 °FChilly.5 mph98%30.98 "Hg4 mi
3:00 am35 °FChilly.5 mph98%30.99 "Hg3 mi
2:00 am37 °FChilly.5 mph98%30.99 "Hg4 mi
1:00 am37 °FChilly.3 mph97%30.99 "Hg6 mi
12:00 am37 °FChilly.5 mph96%30.99 "Hg7 mi
Weather by CustomWeather, © 2020

See weather overview

Advertising